FFT4171 KTTN-KTPA

Flight info

Callsign FFT4171
Flight time 2h 14m
Altitude 36000
Route STOEN Q75 TEUFL BAAMF DADES2
Aircraft A320/M-SDE3FGHIRWY/LB1

Departure

Time 2026-05-05 15:37
Airport Trenton Mercer Airport (KTTN)

Arrival

Time 2026-05-05 17:51
Airport Tampa International Airport (KTPA)
Time Latitude Longitude Altitude Speed Heading
2026-05-05 14:55 40.27710 -74.81734 201 ft 0 kts 276°
2026-05-05 15:23 40.27708 -74.81716 211 ft 4 kts 287°
2026-05-05 15:23 40.27696 -74.81689 206 ft 4 kts 339°
2026-05-05 15:24 40.27682 -74.81685 208 ft 2 kts 10°
2026-05-05 15:28 40.27686 -74.81684 210 ft 5 kts 10°
2026-05-05 15:28 40.27721 -74.81676 209 ft 2 kts
2026-05-05 15:28 40.27752 -74.81670 209 ft 11 kts
2026-05-05 15:29 40.27815 -74.81657 209 ft 8 kts
2026-05-05 15:29 40.27883 -74.81642 210 ft 10 kts
2026-05-05 15:29 40.27935 -74.81631 210 ft 6 kts
2026-05-05 15:29 40.27981 -74.81632 216 ft 7 kts 345°
2026-05-05 15:30 40.28027 -74.81664 213 ft 11 kts 327°
2026-05-05 15:30 40.28078 -74.81709 220 ft 7 kts 326°
2026-05-05 15:30 40.28135 -74.81759 217 ft 11 kts 325°
2026-05-05 15:30 40.28192 -74.81811 222 ft 9 kts 325°
2026-05-05 15:31 40.28238 -74.81851 221 ft 9 kts 326°
2026-05-05 15:31 40.28287 -74.81876 223 ft 8 kts 356°
2026-05-05 15:31 40.28338 -74.81842 223 ft 10 kts 49°
2026-05-05 15:31 40.28378 -74.81768 221 ft 10 kts 55°
2026-05-05 15:32 40.28401 -74.81687 220 ft 9 kts 99°
2026-05-05 15:32 40.28351 -74.81625 219 ft 12 kts 147°
2026-05-05 15:32 40.28272 -74.81557 220 ft 15 kts 147°
2026-05-05 15:32 40.28214 -74.81481 218 ft 11 kts 116°
2026-05-05 15:33 40.28150 -74.81403 215 ft 16 kts 146°
2026-05-05 15:33 40.28084 -74.81322 215 ft 13 kts 114°
2026-05-05 15:33 40.28057 -74.81202 204 ft 14 kts 104°
2026-05-05 15:33 40.28030 -74.81072 209 ft 16 kts 105°
2026-05-05 15:34 40.28018 -74.80974 201 ft 9 kts 81°
2026-05-05 15:34 40.28053 -74.80905 205 ft 9 kts 48°
2026-05-05 15:34 40.28092 -74.80852 202 ft 8 kts 45°
2026-05-05 15:34 40.28125 -74.80809 196 ft 5 kts 46°
2026-05-05 15:35 40.28161 -74.80759 202 ft 8 kts 46°
2026-05-05 15:35 40.28172 -74.80706 200 ft 5 kts 100°
2026-05-05 15:35 40.28156 -74.80677 208 ft 4 kts 138°
2026-05-05 15:35 40.28094 -74.80638 203 ft 12 kts 186°
2026-05-05 15:36 40.28039 -74.80701 202 ft 12 kts 227°
2026-05-05 15:36 40.27946 -74.80828 205 ft 43 kts 226°
2026-05-05 15:36 40.27533 -74.81390 197 ft 125 kts 226°
2026-05-05 15:36 40.26793 -74.82395 475 ft 165 kts 225°
2026-05-05 15:37 40.26014 -74.83528 1396 ft 168 kts 227°
2026-05-05 15:37 40.25228 -74.84673 2307 ft 176 kts 236°
2026-05-05 15:37 40.24575 -74.86133 2653 ft 197 kts 242°
2026-05-05 15:37 40.23868 -74.87793 3053 ft 221 kts 242°
2026-05-05 15:38 40.23081 -74.89642 3666 ft 241 kts 242°
2026-05-05 15:38 40.22253 -74.91576 4520 ft 247 kts 242°
2026-05-05 15:38 40.21410 -74.93539 5411 ft 248 kts 241°
2026-05-05 15:38 40.20561 -74.95519 6334 ft 251 kts 240°
2026-05-05 15:39 40.19701 -74.97519 7214 ft 252 kts 240°
2026-05-05 15:39 40.18841 -74.99521 8114 ft 253 kts 240°
2026-05-05 15:39 40.17979 -75.01521 9063 ft 252 kts 240°
2026-05-05 15:39 40.17120 -75.03514 9989 ft 252 kts 240°
2026-05-05 15:40 40.16547 -75.04844 10440 ft 258 kts 240°
2026-05-05 15:40 40.16142 -75.05785 10494 ft 271 kts 240°
2026-05-05 15:40 40.15157 -75.08072 10571 ft 298 kts 240°
2026-05-05 15:40 40.14144 -75.10424 11421 ft 297 kts 240°
2026-05-05 15:41 40.13139 -75.12755 12201 ft 299 kts 241°
2026-05-05 15:41 40.12096 -75.15162 12968 ft 302 kts 241°
2026-05-05 15:41 40.11052 -75.17569 13682 ft 306 kts 242°
2026-05-05 15:41 40.09999 -75.20000 14322 ft 310 kts 242°
2026-05-05 15:42 40.08931 -75.22465 14947 ft 314 kts 242°
2026-05-05 15:42 40.07863 -75.24930 15542 ft 318 kts 242°
2026-05-05 15:42 40.06772 -75.27444 16141 ft 322 kts 242°
2026-05-05 15:42 40.05660 -75.30012 16751 ft 326 kts 242°
2026-05-05 15:43 40.04537 -75.32600 17351 ft 330 kts 242°
2026-05-05 15:43 40.03397 -75.35222 17940 ft 334 kts 242°
2026-05-05 15:43 40.02241 -75.37873 18483 ft 338 kts 242°
2026-05-05 15:43 40.01070 -75.40553 18998 ft 342 kts 242°
2026-05-05 15:44 39.99885 -75.43267 19501 ft 346 kts 242°
2026-05-05 15:44 39.98691 -75.46003 19917 ft 350 kts 242°
2026-05-05 15:44 39.97487 -75.48764 20026 ft 351 kts 242°
2026-05-05 15:44 39.96271 -75.51544 20483 ft 354 kts 242°
2026-05-05 15:45 39.95045 -75.54341 20990 ft 357 kts 242°
2026-05-05 15:45 39.93807 -75.57160 21478 ft 360 kts 242°
2026-05-05 15:45 39.92560 -75.59999 21951 ft 363 kts 242°
2026-05-05 15:45 39.91298 -75.62874 22412 ft 367 kts 242°
2026-05-05 15:46 39.90024 -75.65773 22867 ft 370 kts 242°
2026-05-05 15:46 39.88739 -75.68694 23297 ft 374 kts 242°
2026-05-05 15:46 39.87441 -75.71646 23699 ft 377 kts 242°
2026-05-05 15:46 39.86131 -75.74620 24060 ft 380 kts 242°
2026-05-05 15:47 39.84808 -75.77624 24429 ft 383 kts 242°
2026-05-05 15:47 39.83903 -75.79594 24668 ft 386 kts 238°
2026-05-05 15:47 39.81672 -75.83299 25144 ft 391 kts 233°
2026-05-05 15:47 39.79943 -75.86047 25497 ft 394 kts 233°
2026-05-05 15:48 39.78790 -75.87881 25740 ft 396 kts 233°
2026-05-05 15:48 39.77042 -75.90662 26073 ft 399 kts 233°
2026-05-05 15:48 39.75280 -75.93464 26417 ft 402 kts 233°
2026-05-05 15:48 39.73502 -75.96286 26753 ft 404 kts 233°
2026-05-05 15:49 39.71134 -76.00051 27203 ft 408 kts 234°
2026-05-05 15:49 39.69917 -76.01987 27428 ft 410 kts 234°
2026-05-05 15:49 39.68107 -76.04864 27755 ft 413 kts 234°
2026-05-05 15:49 39.66282 -76.07759 28086 ft 416 kts 234°
2026-05-05 15:50 39.64463 -76.10629 28399 ft 418 kts 234°
2026-05-05 15:50 39.62605 -76.13556 28721 ft 421 kts 234°
2026-05-05 15:50 39.60743 -76.16499 29037 ft 424 kts 234°
2026-05-05 15:50 39.58861 -76.19462 29343 ft 427 kts 233°
2026-05-05 15:51 39.56948 -76.22425 29643 ft 430 kts 233°
2026-05-05 15:51 39.55014 -76.25399 29937 ft 433 kts 233°
2026-05-05 15:51 39.53060 -76.28388 30196 ft 435 kts 233°
2026-05-05 15:51 39.51095 -76.31386 30459 ft 437 kts 233°
2026-05-05 15:52 39.49126 -76.34391 30721 ft 438 kts 233°
2026-05-05 15:52 39.47153 -76.37402 31023 ft 439 kts 233°
2026-05-05 15:52 39.45134 -76.40383 31330 ft 440 kts 231°
2026-05-05 15:52 39.43034 -76.43257 31719 ft 440 kts 230°
2026-05-05 15:53 39.40874 -76.46063 32112 ft 438 kts 229°
2026-05-05 15:53 39.38700 -76.48817 32494 ft 437 kts 229°
2026-05-05 15:53 39.36530 -76.51560 32864 ft 435 kts 229°
2026-05-05 15:53 39.34382 -76.54301 33232 ft 434 kts 230°
2026-05-05 15:54 39.32245 -76.57050 33597 ft 432 kts 230°
2026-05-05 15:54 39.30150 -76.59767 33932 ft 431 kts 230°
2026-05-05 15:54 39.28048 -76.62508 34236 ft 430 kts 231°
2026-05-05 15:54 39.25940 -76.65264 34540 ft 429 kts 231°
2026-05-05 15:55 39.23843 -76.68003 34822 ft 428 kts 230°
2026-05-05 15:55 39.21749 -76.70733 35100 ft 428 kts 230°
2026-05-05 15:55 39.19658 -76.73452 35384 ft 426 kts 230°
2026-05-05 15:55 39.17567 -76.76166 35655 ft 426 kts 230°
2026-05-05 15:56 39.15481 -76.78870 35919 ft 425 kts 230°
2026-05-05 15:56 39.11346 -76.84218 35983 ft 420 kts 230°
2026-05-05 15:57 39.07201 -76.89562 35987 ft 419 kts 230°
2026-05-05 15:57 39.03079 -76.94870 35985 ft 419 kts 230°
2026-05-05 15:58 38.98945 -77.00190 35986 ft 420 kts 230°
2026-05-05 15:58 38.94823 -77.05500 35975 ft 420 kts 230°
2026-05-05 15:59 38.90697 -77.10806 35975 ft 420 kts 230°
2026-05-05 15:59 38.86569 -77.16105 35971 ft 420 kts 230°
2026-05-05 16:00 38.82427 -77.21413 35954 ft 420 kts 230°
2026-05-05 16:00 38.78292 -77.26705 35954 ft 420 kts 230°
2026-05-05 16:01 38.74174 -77.31960 35953 ft 421 kts 230°
2026-05-05 16:01 38.69940 -77.37161 35971 ft 423 kts 228°
2026-05-05 16:02 38.65540 -77.42179 35970 ft 424 kts 227°
2026-05-05 16:02 38.61117 -77.47172 35966 ft 424 kts 227°
2026-05-05 16:03 38.56725 -77.52209 35965 ft 424 kts 228°
2026-05-05 16:03 38.52355 -77.57263 35974 ft 424 kts 228°
2026-05-05 16:04 38.47963 -77.62317 35964 ft 425 kts 228°
2026-05-05 16:04 38.43552 -77.67358 35969 ft 426 kts 228°
2026-05-05 16:05 38.39148 -77.72394 35989 ft 426 kts 228°
2026-05-05 16:05 38.34762 -77.77412 35987 ft 426 kts 228°
2026-05-05 16:06 38.30348 -77.82457 35999 ft 426 kts 228°
2026-05-05 16:06 38.25932 -77.87489 36001 ft 426 kts 228°
2026-05-05 16:07 38.21498 -77.92516 36007 ft 427 kts 228°
2026-05-05 16:07 38.17071 -77.97534 36012 ft 427 kts 228°
2026-05-05 16:08 38.12641 -78.02554 36001 ft 427 kts 228°
2026-05-05 16:08 38.08208 -78.07564 35994 ft 426 kts 228°
2026-05-05 16:09 38.03774 -78.12573 36002 ft 426 kts 228°
2026-05-05 16:09 37.99301 -78.17469 36013 ft 429 kts 225°
2026-05-05 16:10 37.94529 -78.22045 36011 ft 431 kts 222°
2026-05-05 16:10 37.89678 -78.26510 36004 ft 431 kts 223°
2026-05-05 16:11 37.84870 -78.31022 35991 ft 430 kts 223°
2026-05-05 16:12 37.75327 -78.40131 35992 ft 430 kts 223°
2026-05-05 16:13 37.63338 -78.51476 36002 ft 431 kts 223°
2026-05-05 16:13 37.58539 -78.56011 36014 ft 431 kts 224°
2026-05-05 16:14 37.48960 -78.65042 36027 ft 432 kts 224°
2026-05-05 16:15 37.39334 -78.74084 36031 ft 432 kts 224°
2026-05-05 16:16 37.29689 -78.83103 36032 ft 431 kts 224°
2026-05-05 16:17 37.22473 -78.89855 36038 ft 432 kts 224°
2026-05-05 16:18 37.15263 -78.96556 36040 ft 431 kts 224°
2026-05-05 16:19 37.08033 -79.03257 36034 ft 431 kts 224°
2026-05-05 16:19 37.00812 -79.09959 36028 ft 430 kts 224°
2026-05-05 16:20 36.91213 -79.18831 36029 ft 430 kts 225°
2026-05-05 16:22 36.78573 -79.29039 36056 ft 439 kts 216°
2026-05-05 16:23 36.67754 -79.36151 36059 ft 439 kts 216°
2026-05-05 16:23 36.59678 -79.41459 36061 ft 439 kts 216°
2026-05-05 16:24 36.54266 -79.45004 36071 ft 439 kts 216°
2026-05-05 16:25 36.46140 -79.50301 36057 ft 439 kts 216°
2026-05-05 16:25 36.38012 -79.55588 36056 ft 439 kts 216°
2026-05-05 16:26 36.27189 -79.62645 36060 ft 439 kts 216°
2026-05-05 16:27 36.21765 -79.66158 36067 ft 440 kts 216°
2026-05-05 16:27 36.16363 -79.69647 36078 ft 440 kts 216°
2026-05-05 16:28 36.10937 -79.73153 36084 ft 440 kts 216°
2026-05-05 16:28 36.05511 -79.76655 36093 ft 440 kts 216°
2026-05-05 16:29 36.00048 -79.80168 36092 ft 440 kts 216°
2026-05-05 16:29 35.94653 -79.83636 36091 ft 439 kts 216°
2026-05-05 16:30 35.89227 -79.87121 36084 ft 439 kts 216°
2026-05-05 16:30 35.83805 -79.90597 36106 ft 439 kts 216°
2026-05-05 16:31 35.78390 -79.94061 36126 ft 438 kts 216°
2026-05-05 16:31 35.72989 -79.97509 36141 ft 437 kts 216°
2026-05-05 16:32 35.67603 -80.00957 36142 ft 435 kts 216°
2026-05-05 16:32 35.62236 -80.04388 36138 ft 435 kts 216°
2026-05-05 16:33 35.56865 -80.07803 36141 ft 434 kts 216°
2026-05-05 16:33 35.51497 -80.11205 36156 ft 434 kts 216°
2026-05-05 16:34 35.47046 -80.14034 36156 ft 433 kts 216°
2026-05-05 16:34 35.41688 -80.17435 36157 ft 433 kts 216°
2026-05-05 16:35 35.36343 -80.20822 36156 ft 433 kts 216°
2026-05-05 16:35 35.30988 -80.24201 36150 ft 432 kts 216°
2026-05-05 16:36 35.25630 -80.27574 36136 ft 432 kts 216°
2026-05-05 16:36 35.20287 -80.30939 36129 ft 432 kts 216°
2026-05-05 16:37 35.14949 -80.34298 36121 ft 431 kts 216°
2026-05-05 16:37 35.09612 -80.37646 36127 ft 431 kts 216°
2026-05-05 16:38 35.04278 -80.40992 36126 ft 430 kts 216°
2026-05-05 16:38 34.98956 -80.44328 36127 ft 430 kts 216°
2026-05-05 16:39 34.93666 -80.47640 36123 ft 429 kts 216°
2026-05-05 16:39 34.88349 -80.50959 36122 ft 429 kts 215°
2026-05-05 16:40 34.83039 -80.54272 36119 ft 428 kts 215°
2026-05-05 16:40 34.77735 -80.57568 36131 ft 428 kts 215°
2026-05-05 16:41 34.72430 -80.60859 36127 ft 427 kts 215°
2026-05-05 16:41 34.67137 -80.64144 36124 ft 427 kts 215°
2026-05-05 16:42 34.62357 -80.68140 36125 ft 411 kts 230°
2026-05-05 16:42 34.58113 -80.72773 36125 ft 411 kts 229°
2026-05-05 16:43 34.53859 -80.77398 36121 ft 410 kts 229°
2026-05-05 16:43 34.49597 -80.82006 36118 ft 410 kts 229°
2026-05-05 16:44 34.45329 -80.86606 36110 ft 410 kts 229°
2026-05-05 16:44 34.41070 -80.91196 36117 ft 410 kts 229°
2026-05-05 16:45 34.36809 -80.95792 36120 ft 410 kts 229°
2026-05-05 16:45 34.32485 -81.00307 36124 ft 415 kts 223°
2026-05-05 16:46 34.27207 -81.03420 36119 ft 432 kts 205°
2026-05-05 16:46 34.21508 -81.05601 36116 ft 432 kts 205°
2026-05-05 16:47 34.15771 -81.07803 36109 ft 432 kts 205°
2026-05-05 16:47 34.10048 -81.10016 36124 ft 432 kts 205°
2026-05-05 16:48 34.04318 -81.12221 36121 ft 432 kts 205°
2026-05-05 16:48 33.98595 -81.14410 36128 ft 431 kts 205°
2026-05-05 16:49 33.92880 -81.16593 36124 ft 431 kts 205°
2026-05-05 16:49 33.87167 -81.18762 36135 ft 430 kts 205°
2026-05-05 16:50 33.81465 -81.20934 36125 ft 429 kts 205°
2026-05-05 16:50 33.75772 -81.23104 36111 ft 429 kts 205°
2026-05-05 16:51 33.70086 -81.25267 36110 ft 428 kts 205°
2026-05-05 16:51 33.64398 -81.27427 36114 ft 428 kts 205°
2026-05-05 16:52 33.58768 -81.29572 36115 ft 427 kts 205°
2026-05-05 16:52 33.53100 -81.31716 36116 ft 427 kts 205°
2026-05-05 16:53 33.47441 -81.33856 36124 ft 426 kts 205°
2026-05-05 16:53 33.41787 -81.35992 36135 ft 426 kts 205°
2026-05-05 16:54 33.36139 -81.38126 36136 ft 425 kts 205°
2026-05-05 16:54 33.30502 -81.40252 36138 ft 424 kts 205°
2026-05-05 16:55 33.24897 -81.42420 36135 ft 422 kts 207°
2026-05-05 16:55 33.19388 -81.44798 36138 ft 420 kts 208°
2026-05-05 16:56 33.13909 -81.47219 36127 ft 420 kts 208°
2026-05-05 16:56 33.08425 -81.49593 36128 ft 420 kts 208°
2026-05-05 16:57 33.02921 -81.51933 36107 ft 419 kts 208°
2026-05-05 16:57 32.97429 -81.54270 36114 ft 419 kts 208°
2026-05-05 16:58 32.91940 -81.56602 36108 ft 418 kts 208°
2026-05-05 16:58 32.86488 -81.58991 36130 ft 417 kts 209°
2026-05-05 16:59 32.81118 -81.61462 36132 ft 416 kts 209°
2026-05-05 16:59 32.75718 -81.63938 36138 ft 416 kts 209°
2026-05-05 17:00 32.70306 -81.66378 36136 ft 415 kts 209°
2026-05-05 17:00 32.64908 -81.68804 36139 ft 415 kts 209°
2026-05-05 17:01 32.59517 -81.71231 36138 ft 414 kts 209°
2026-05-05 17:01 32.54170 -81.73643 36105 ft 413 kts 209°
2026-05-05 17:02 32.48798 -81.76060 36102 ft 413 kts 209°
2026-05-05 17:02 32.43422 -81.78473 36106 ft 412 kts 209°
2026-05-05 17:03 32.38055 -81.80879 36098 ft 412 kts 210°
2026-05-05 17:03 32.32690 -81.83283 36114 ft 412 kts 210°
2026-05-05 17:04 32.27324 -81.85685 36115 ft 412 kts 210°
2026-05-05 17:04 32.21989 -81.88063 36113 ft 412 kts 210°
2026-05-05 17:05 32.16624 -81.90442 36109 ft 411 kts 210°
2026-05-05 17:05 32.11234 -81.92737 36097 ft 414 kts 208°
2026-05-05 17:06 32.05726 -81.94773 36092 ft 415 kts 206°
2026-05-05 17:06 32.00192 -81.96756 36087 ft 415 kts 207°
2026-05-05 17:07 31.94676 -81.98788 36089 ft 415 kts 207°
2026-05-05 17:07 31.89162 -82.00855 36082 ft 415 kts 207°
2026-05-05 17:08 31.83558 -82.02588 36077 ft 423 kts 202°
2026-05-05 17:08 31.77789 -82.04046 36075 ft 423 kts 202°
2026-05-05 17:09 31.72024 -82.05501 36082 ft 424 kts 202°
2026-05-05 17:09 31.66254 -82.06959 36080 ft 424 kts 203°
2026-05-05 17:10 31.60487 -82.08423 36088 ft 425 kts 203°
2026-05-05 17:10 31.54705 -82.09881 36086 ft 425 kts 203°
2026-05-05 17:11 31.48915 -82.11331 36088 ft 426 kts 203°
2026-05-05 17:11 31.43159 -82.12773 36085 ft 426 kts 203°
2026-05-05 17:12 31.37362 -82.14230 36078 ft 426 kts 203°
2026-05-05 17:12 31.31556 -82.15690 36063 ft 426 kts 203°
2026-05-05 17:13 31.25749 -82.17145 36066 ft 427 kts 203°
2026-05-05 17:13 31.19934 -82.18592 36063 ft 427 kts 202°
2026-05-05 17:14 31.17026 -82.19313 35675 ft 427 kts 202°
2026-05-05 17:14 31.14121 -82.20038 35000 ft 428 kts 202°
2026-05-05 17:14 31.11205 -82.20769 34341 ft 429 kts 202°
2026-05-05 17:14 31.08282 -82.21499 33608 ft 430 kts 202°
2026-05-05 17:15 31.05347 -82.22229 32823 ft 432 kts 201°
2026-05-05 17:15 31.02405 -82.22962 32275 ft 432 kts 201°
2026-05-05 17:15 30.99455 -82.23697 32081 ft 435 kts 201°
2026-05-05 17:15 30.96487 -82.24437 32107 ft 436 kts 201°
2026-05-05 17:16 30.90530 -82.25916 32110 ft 438 kts 201°
2026-05-05 17:16 30.84604 -82.27385 32110 ft 438 kts 201°
2026-05-05 17:17 30.78620 -82.28870 32115 ft 439 kts 201°
2026-05-05 17:17 30.72648 -82.30345 32130 ft 439 kts 201°
2026-05-05 17:18 30.66681 -82.31764 32118 ft 444 kts 197°
2026-05-05 17:18 30.60501 -82.32552 32125 ft 448 kts 195°
2026-05-05 17:19 30.54299 -82.33325 32131 ft 448 kts 195°
2026-05-05 17:19 30.48096 -82.34098 32132 ft 448 kts 195°
2026-05-05 17:20 30.41886 -82.34878 32125 ft 449 kts 195°
2026-05-05 17:20 30.35673 -82.35647 32088 ft 449 kts 195°
2026-05-05 17:21 30.32596 -82.36018 31822 ft 440 kts 195°
2026-05-05 17:21 30.30556 -82.36263 31651 ft 432 kts 195°
2026-05-05 17:21 30.27637 -82.36614 31404 ft 422 kts 195°
2026-05-05 17:22 30.21902 -82.37324 30899 ft 409 kts 195°
2026-05-05 17:22 30.19073 -82.37682 30671 ft 407 kts 195°
2026-05-05 17:22 30.16229 -82.37883 30426 ft 413 kts 188°
2026-05-05 17:22 30.13349 -82.37750 30178 ft 414 kts 186°
2026-05-05 17:23 30.10480 -82.37594 29905 ft 412 kts 186°
2026-05-05 17:23 30.07614 -82.37434 29629 ft 410 kts 186°
2026-05-05 17:23 30.04770 -82.37272 29358 ft 408 kts 186°
2026-05-05 17:23 30.01941 -82.37111 29083 ft 407 kts 186°
2026-05-05 17:24 29.99116 -82.36951 28809 ft 405 kts 186°
2026-05-05 17:24 29.96310 -82.36791 28537 ft 403 kts 185°
2026-05-05 17:24 29.93514 -82.36632 28287 ft 401 kts 185°
2026-05-05 17:24 29.90732 -82.36474 28022 ft 400 kts 185°
2026-05-05 17:25 29.87960 -82.36319 27766 ft 398 kts 185°
2026-05-05 17:25 29.86131 -82.36218 27580 ft 396 kts 185°
2026-05-05 17:25 29.82468 -82.36018 26994 ft 392 kts 185°
2026-05-05 17:25 29.79787 -82.35878 26554 ft 389 kts 185°
2026-05-05 17:26 29.77095 -82.35744 26119 ft 386 kts 185°
2026-05-05 17:26 29.74416 -82.35617 25697 ft 383 kts 185°
2026-05-05 17:26 29.71760 -82.35497 25272 ft 380 kts 185°
2026-05-05 17:26 29.69127 -82.35385 24854 ft 378 kts 185°
2026-05-05 17:27 29.66505 -82.35281 24437 ft 375 kts 185°
2026-05-05 17:27 29.63901 -82.35185 24037 ft 373 kts 185°
2026-05-05 17:27 29.61313 -82.35098 23626 ft 370 kts 185°
2026-05-05 17:27 29.58742 -82.35020 23152 ft 368 kts 185°
2026-05-05 17:28 29.56190 -82.34950 22713 ft 365 kts 185°
2026-05-05 17:28 29.53652 -82.34889 22285 ft 363 kts 185°
2026-05-05 17:28 29.51172 -82.34839 21871 ft 360 kts 185°
2026-05-05 17:28 29.48675 -82.34798 21465 ft 358 kts 185°
2026-05-05 17:29 29.46193 -82.34766 21068 ft 356 kts 185°
2026-05-05 17:29 29.43693 -82.34742 20677 ft 353 kts 185°
2026-05-05 17:29 29.41275 -82.34727 20286 ft 351 kts 185°
2026-05-05 17:29 29.38838 -82.34723 19900 ft 349 kts 185°
2026-05-05 17:30 29.36415 -82.34727 19531 ft 347 kts 185°
2026-05-05 17:30 29.34004 -82.34739 19167 ft 345 kts 185°
2026-05-05 17:30 29.31611 -82.34761 18817 ft 343 kts 185°
2026-05-05 17:30 29.29227 -82.34791 18474 ft 342 kts 185°
2026-05-05 17:31 29.26853 -82.34558 18073 ft 344 kts 176°
2026-05-05 17:31 29.24487 -82.34174 17711 ft 342 kts 176°
2026-05-05 17:31 29.22143 -82.33785 17365 ft 340 kts 175°
2026-05-05 17:31 29.19806 -82.33391 17005 ft 338 kts 175°
2026-05-05 17:32 29.17485 -82.32999 16660 ft 336 kts 175°
2026-05-05 17:32 29.15180 -82.32614 16322 ft 334 kts 175°
2026-05-05 17:32 29.12883 -82.32233 15995 ft 332 kts 175°
2026-05-05 17:32 29.10600 -82.31857 15671 ft 330 kts 175°
2026-05-05 17:33 29.08330 -82.31484 15360 ft 329 kts 175°
2026-05-05 17:33 29.06073 -82.31109 15049 ft 327 kts 175°
2026-05-05 17:33 29.03830 -82.30737 14736 ft 325 kts 175°
2026-05-05 17:33 29.01598 -82.30368 14430 ft 323 kts 175°
2026-05-05 17:34 28.99375 -82.30000 14126 ft 321 kts 175°
2026-05-05 17:34 28.97166 -82.29633 13817 ft 320 kts 175°
2026-05-05 17:34 28.94970 -82.29267 13484 ft 318 kts 175°
2026-05-05 17:34 28.92783 -82.28904 13153 ft 316 kts 175°
2026-05-05 17:35 28.90612 -82.28544 12819 ft 314 kts 175°
2026-05-05 17:35 28.88459 -82.28189 12501 ft 311 kts 174°
2026-05-05 17:35 28.86352 -82.27842 12181 ft 309 kts 174°
2026-05-05 17:35 28.84228 -82.27493 11859 ft 307 kts 174°
2026-05-05 17:36 28.82120 -82.27144 11535 ft 305 kts 174°
2026-05-05 17:36 28.80026 -82.26799 11222 ft 303 kts 174°
2026-05-05 17:36 28.77949 -82.26458 10909 ft 301 kts 174°
2026-05-05 17:36 28.75885 -82.26117 10583 ft 299 kts 174°
2026-05-05 17:37 28.73833 -82.25812 10256 ft 296 kts 179°
2026-05-05 17:37 28.71788 -82.25767 9930 ft 293 kts 182°
2026-05-05 17:37 28.69761 -82.25743 9582 ft 290 kts 181°
2026-05-05 17:37 28.67747 -82.25711 9218 ft 288 kts 181°
2026-05-05 17:38 28.65746 -82.25678 8852 ft 287 kts 181°
2026-05-05 17:38 28.63755 -82.25647 8496 ft 285 kts 181°
2026-05-05 17:38 28.61777 -82.25614 8124 ft 284 kts 181°
2026-05-05 17:38 28.59810 -82.25578 7762 ft 282 kts 181°
2026-05-05 17:39 28.57857 -82.25539 7382 ft 280 kts 180°
2026-05-05 17:39 28.55909 -82.25498 7021 ft 279 kts 180°
2026-05-05 17:39 28.53976 -82.25456 6649 ft 277 kts 180°
2026-05-05 17:39 28.52054 -82.25418 6280 ft 275 kts 179°
2026-05-05 17:40 28.50143 -82.25389 5892 ft 274 kts 180°
2026-05-05 17:40 28.48240 -82.25366 5502 ft 273 kts 179°
2026-05-05 17:40 28.46355 -82.25345 5113 ft 271 kts 179°
2026-05-05 17:40 28.44461 -82.25323 4713 ft 270 kts 179°
2026-05-05 17:41 28.42589 -82.25299 4289 ft 269 kts 179°
2026-05-05 17:41 28.40721 -82.25275 3912 ft 268 kts 178°
2026-05-05 17:41 28.38862 -82.25252 3521 ft 267 kts 179°
2026-05-05 17:41 28.37028 -82.25524 3121 ft 267 kts 194°
2026-05-05 17:42 28.35304 -82.26316 2754 ft 267 kts 208°
2026-05-05 17:42 28.33826 -82.27538 2363 ft 266 kts 220°
2026-05-05 17:42 28.32416 -82.28899 1950 ft 266 kts 219°
2026-05-05 17:42 28.31116 -82.30378 1700 ft 263 kts 232°
2026-05-05 17:43 28.30211 -82.32105 1698 ft 248 kts 246°
2026-05-05 17:43 28.29715 -82.33911 1699 ft 231 kts 260°
2026-05-05 17:43 28.29498 -82.35695 1700 ft 227 kts 262°
2026-05-05 17:43 28.29293 -82.37472 1706 ft 223 kts 262°
2026-05-05 17:44 28.29096 -82.39170 1702 ft 212 kts 262°
2026-05-05 17:44 28.28944 -82.40807 1699 ft 206 kts 271°
2026-05-05 17:44 28.28870 -82.42416 1699 ft 204 kts 255°
2026-05-05 17:44 28.28203 -82.43812 1699 ft 202 kts 224°
2026-05-05 17:45 28.27089 -82.44757 1699 ft 201 kts 212°
2026-05-05 17:45 28.25929 -82.45652 1703 ft 201 kts 213°
2026-05-05 17:45 28.24776 -82.46544 1695 ft 201 kts 213°
2026-05-05 17:45 28.23648 -82.47417 1696 ft 200 kts 212°
2026-05-05 17:46 28.22472 -82.48326 1691 ft 201 kts 212°
2026-05-05 17:46 28.21323 -82.49215 1688 ft 200 kts 213°
2026-05-05 17:46 28.20171 -82.50108 1691 ft 200 kts 213°
2026-05-05 17:46 28.19019 -82.51002 1696 ft 200 kts 212°
2026-05-05 17:47 28.17874 -82.51889 1701 ft 200 kts 212°
2026-05-05 17:47 28.16730 -82.52775 1700 ft 200 kts 212°
2026-05-05 17:47 28.15509 -82.53452 1701 ft 198 kts 193°
2026-05-05 17:47 28.14149 -82.53633 1707 ft 196 kts 180°
2026-05-05 17:48 28.12789 -82.53677 1708 ft 195 kts 179°
2026-05-05 17:48 28.11411 -82.53723 1698 ft 196 kts 179°
2026-05-05 17:48 28.10125 -82.53767 1719 ft 179 kts 180°
2026-05-05 17:48 28.08929 -82.53808 1702 ft 164 kts 179°
2026-05-05 17:49 28.07838 -82.53846 1622 ft 154 kts 179°
2026-05-05 17:49 28.06776 -82.53881 1478 ft 151 kts 178°
2026-05-05 17:49 28.05728 -82.53917 1312 ft 146 kts 179°
2026-05-05 17:49 28.04720 -82.53951 1109 ft 144 kts 180°
2026-05-05 17:50 28.03721 -82.53984 939 ft 143 kts 179°
2026-05-05 17:50 28.02731 -82.54018 746 ft 141 kts 180°
2026-05-05 17:50 28.01755 -82.54051 558 ft 138 kts 180°
2026-05-05 17:50 28.00799 -82.54084 377 ft 136 kts 179°
2026-05-05 17:51 27.99857 -82.54122 176 ft 134 kts 179°
2026-05-05 17:51 27.98938 -82.54149 48 ft 125 kts 178°
2026-05-05 17:51 27.98225 -82.54170 50 ft 78 kts 181°
2026-05-05 17:51 27.97830 -82.54187 47 ft 26 kts 181°
2026-05-05 17:52 27.97751 -82.54160 47 ft 0 kts 153°
2026-05-05 17:52 27.97720 -82.54142 45 ft 14 kts 152°
2026-05-05 17:52 27.97632 -82.54088 47 ft 7 kts 152°
2026-05-05 17:52 27.97596 -82.54044 44 ft 8 kts 110°
2026-05-05 17:53 27.97614 -82.53992 44 ft 7 kts 31°
2026-05-05 17:53 27.97664 -82.53982 46 ft 8 kts
2026-05-05 17:53 27.97716 -82.53980 44 ft 7 kts
2026-05-05 17:53 27.97763 -82.53979 46 ft 7 kts
2026-05-05 17:54 27.97809 -82.53978 46 ft 6 kts
2026-05-05 17:54 27.97853 -82.53977 46 ft 6 kts
2026-05-05 17:54 27.97891 -82.53967 45 ft 6 kts 37°
2026-05-05 17:54 27.97911 -82.53922 44 ft 7 kts 73°
2026-05-05 17:55 27.97922 -82.53888 43 ft 1 kts 70°